Flight Track Log - Related Links

Times and Time Zones

All times are in EDT time to prevent confusion due to time zone crossing. See the GLA182 flight status page for this flight to view local times or setup timezone preferences in your user account.

Time Position Orientation Groundspeed Altitude Reporting Facility
EDT Latitude Longitude Course Direction KTS MPH feet Rate Location/Type
Tue 11:01:37 AM 44.3517 -100.3606 220° Southwest 179 206 4,900  Level Denver Center
Tue 11:02:37 AM 44.3128 -100.4067 220° Southwest 179 206 6,800 1,736 Climbing Minneapolis Center
Tue 11:03:38 AM 44.2653 -100.4511 214° Southwest 191 220 8,400 1,512 Climbing Minneapolis Center
Tue 11:04:40 AM 44.2072 -100.5097 216° Southwest 205 236 9,900 1,317 Climbing Minneapolis Center
Tue 11:05:41 AM 44.1578 -100.5619 217° Southwest 213 245 11,100 1,073 Climbing Minneapolis Center
Tue 11:06:43 AM 44.1083 -100.6128 216° Southwest 218 251 12,100 1,022 Climbing Minneapolis Center
Tue 11:07:56 AM 44.0589 -100.6594 214° Southwest 218 251 13,400 1,111 Climbing Minneapolis Center
Tue 11:08:58 AM 44.0058 -100.7178 218° Southwest 210 242 14,600 968 Climbing Minneapolis Center
Tue 11:10:00 AM 43.9611 -100.7628 216° Southwest 204 235 15,400 927 Climbing Minneapolis Center
Tue 11:11:01 AM 43.9167 -100.8056 215° Southwest 199 229 16,500 976 Climbing Minneapolis Center
Tue 11:12:03 AM 43.8711 -100.8461 213° Southwest 197 227 17,400 1,073 Climbing Minneapolis Center
Tue 11:13:04 AM 43.8217 -100.9000 218° Southwest 192 221 18,700 1,024 Climbing Minneapolis Center
Tue 11:14:06 AM 43.7831 -100.9456 220° Southwest 187 215 19,500 732 Climbing Minneapolis Center
Tue 11:15:07 AM 43.7428 -100.9928 220° Southwest 187 215 20,200 634 Climbing Minneapolis Center
Tue 11:16:09 AM 43.7022 -101.0400 220° Southwest 189 217 20,800 585 Climbing Minneapolis Center
Tue 11:17:10 AM 43.6619 -101.0875 220° Southwest 190 219 21,400 639 Climbing Minneapolis Center
Tue 11:18:11 AM 43.6192 -101.1356 219° Southwest 193 222 22,100 634 Climbing Minneapolis Center
Tue 11:19:13 AM 43.5781 -101.1800 218° Southwest 192 221 22,700 537 Climbing Minneapolis Center
Tue 11:20:14 AM 43.5350 -101.2200 214° Southwest 189 217 23,200 488 Climbing Minneapolis Center
Tue 11:21:16 AM 43.4925 -101.2622 216° Southwest 188 216 23,700 387 Climbing Denver Center
Tue 11:22:18 AM 43.4419 -101.3167 218° Southwest 191 220 24,000 145 Climbing Denver Center
Tue 11:23:20 AM 43.3989 -101.3672 220° Southwest 200 230 24,000  Level Denver Center
Tue 11:24:22 AM 43.3544 -101.4150 218° Southwest 203 234 24,000 -48 Level Denver Center
Tue 11:25:24 AM 43.3100 -101.4619 218° Southwest 201 231 23,900  Descending Denver Center
Tue 11:26:26 AM 43.2669 -101.5089 218° Southwest 199 229 24,000 48 Climbing Denver Center
Tue 11:27:28 AM 43.2228 -101.5561 218° Southwest 200 230 24,000  Level Denver Center
Tue 11:28:30 AM 43.1703 -101.6119 218° Southwest 199 229 24,000  Level Denver Center
Tue 11:29:32 AM 43.1258 -101.6603 218° Southwest 202 232 24,000  Level Denver Center
Tue 11:30:34 AM 43.0828 -101.7103 220° Southwest 203 234 24,000  Level Denver Center
Tue 11:31:36 AM 43.0361 -101.7653 221° Southwest 204 235 24,000  Level Denver Center
Tue 11:32:38 AM 42.9919 -101.8100 217° Southwest 206 237 24,000  Level Denver Center
Tue 11:33:40 AM 42.9422 -101.8644 219° Southwest 206 237 24,000  Level Denver Center
Tue 11:34:43 AM 42.9011 -101.9131 221° Southwest 205 236 24,000  Level Denver Center
Tue 11:35:45 AM 42.8622 -101.9653 225° Southwest 205 236 24,000  Level Denver Center
Tue 11:36:47 AM 42.8206 -102.0275 228° Southwest 201 231 24,000  Level Denver Center
Tue 11:37:49 AM 42.7817 -102.0800 225° Southwest 203 234 24,000  Level Denver Center
Tue 11:38:51 AM 42.7369 -102.1411 225° Southwest 204 235 24,000  Level Denver Center
Tue 11:39:53 AM 42.6961 -102.1914 222° Southwest 207 238 24,000  Level Denver Center
Tue 11:40:55 AM 42.6514 -102.2542 226° Southwest 207 238 24,000  Level Denver Center
Tue 11:41:57 AM 42.6142 -102.3078 227° Southwest 206 237 24,000  Level Denver Center
Tue 11:42:59 AM 42.5714 -102.3733 228° Southwest 207 238 24,000 -48 Level Denver Center
Tue 11:44:01 AM 42.5336 -102.4258 226° Southwest 205 236 23,900  Descending Denver Center
Tue 11:45:03 AM 42.4897 -102.4886 227° Southwest 204 235 24,000 48 Climbing Denver Center
Tue 11:46:05 AM 42.4519 -102.5422 226° Southwest 205 236 24,000  Level Denver Center
Tue 11:47:07 AM 42.4106 -102.6067 229° Southwest 205 236 24,000  Level Denver Center
Tue 11:48:09 AM 42.3733 -102.6603 227° Southwest 203 234 24,000  Level Denver Center
Tue 11:49:11 AM 42.3319 -102.7239 229° Southwest 205 236 24,000  Level Denver Center
Tue 11:50:25 AM 42.2953 -102.7800 229° Southwest 206 237 24,000  Level Denver Center
Tue 11:51:28 AM 42.2539 -102.8600 235° Southwest 206 237 24,000 -336 Level Denver Center
Tue 11:52:30 AM 42.2247 -102.9208 237° Southwest 202 232 23,300 -871 Descending Denver Center
Tue 11:53:32 AM 42.1908 -102.9942 238° Southwest 205 236 22,200 -581 Descending Denver Center
Tue 11:54:34 AM 42.1600 -103.0589 237° Southwest 211 243 22,100 -48 Descending Denver Center
Tue 11:55:36 AM 42.1206 -103.1303 233° Southwest 212 244 22,100 -48 Level Denver Center
Tue 11:56:38 AM 42.0828 -103.1875 228° Southwest 212 244 22,000 -48 Descending Denver Center
Tue 11:57:40 AM 42.0339 -103.2519 224° Southwest 217 250 22,000  Level Denver Center
Tue 11:58:42 AM 41.9961 -103.3125 230° Southwest 220 253 22,000  Level Denver Center
Tue 11:59:44 AM 41.9586 -103.3733 230° Southwest 220 253 22,000  Level Denver Center
Tue 12:00:46 PM 41.9150 -103.4414 229° Southwest 218 251 22,000  Level Denver Center
Tue 12:01:48 PM 41.8747 -103.4956 225° Southwest 216 249 22,000  Level Denver Center
Tue 12:02:50 PM 41.7950 -103.4856 175° South 256 295 22,000  Level Denver Center
Tue 12:03:52 PM 41.7303 -103.4961 187° South 246 283 22,000  Level Denver Center
Tue 12:04:54 PM 41.6583 -103.5153 191° South 236 272 22,000  Level Denver Center
Tue 12:05:56 PM 41.5944 -103.5297 190° South 242 278 22,000 -97 Level Denver Center
Tue 12:06:58 PM 41.5192 -103.5447 188° South 244 281 21,800 -387 Descending Denver Center
Tue 12:08:00 PM 41.4503 -103.5508 184° South 254 292 21,200 -629 Descending Denver Center
Tue 12:09:02 PM 41.3694 -103.5558 183° South 261 300 20,500 -774 Descending Denver Center
Tue 12:10:04 PM 41.2983 -103.5633 185° South 264 304 19,600 -968 Descending Denver Center
Tue 12:11:06 PM 41.2197 -103.5708 184° South 257 296 18,500 -1,161 Descending Denver Center
Tue 12:12:08 PM 41.1531 -103.5800 186° South 252 290 17,200 -1,065 Descending Denver Center
Tue 12:13:10 PM 41.0864 -103.5922 188° South 251 289 16,300 -581 Descending Denver Center
Tue 12:14:12 PM 41.0092 -103.6047 187° South 252 290 16,000 -145 Descending Denver Center
Tue 12:15:14 PM 40.9411 -103.6131 185° South 253 291 16,000  Level Denver Center
Tue 12:16:16 PM 40.8636 -103.6264 187° South 253 291 16,000  Level Denver Center
Tue 12:17:18 PM 40.7961 -103.6375 187° South 253 291 16,000  Level Denver Center
Tue 12:18:19 PM 40.7189 -103.6475 186° South 251 289 16,000 -293 Level Denver Center
Tue 12:19:21 PM 40.6522 -103.6575 186° South 251 289 15,400 -823 Descending Denver Center
Tue 12:20:23 PM 40.5858 -103.7083 210° Southwest 245 282 14,300 -968 Descending Denver Center
Tue 12:21:25 PM 40.5339 -103.7617 218° Southwest 245 282 13,400 -629 Descending Denver Center
Tue 12:22:27 PM 40.4750 -103.8269 220° Southwest 246 283 13,000 -242 Descending Denver Center
Tue 12:23:29 PM 40.4339 -103.8892 229° Southwest 240 276 12,900  Descending Denver Center
Tue 12:24:31 PM 40.3883 -103.9611 230° Southwest 239 275 13,000 48 Climbing Denver Center
Tue 12:25:33 PM 40.3422 -104.0228 226° Southwest 238 274 13,000  Level Denver Center
Tue 12:26:35 PM 40.2936 -104.0919 227° Southwest 239 275 13,000  Level Denver Center
Tue 12:27:37 PM 40.2472 -104.1547 226° Southwest 239 275 13,000  Level Denver Center
Tue 12:28:39 PM 40.1997 -104.2175 225° Southwest 243 280 13,000  Level Denver Center
Tue 12:29:41 PM 40.1486 -104.2881 227° Southwest 247 284 13,000  Level Denver Center
Tue 12:30:43 PM 40.1025 -104.3531 227° Southwest 245 282 13,000  Level Denver Center
Tue 12:31:38 PM 40.0500 -104.4167 223° Southwest 248 285 13,000  Level Denver TRACON
Tue 12:32:32 PM 40.0167 -104.4667 229° Southwest 250 288 13,000 -526 Level Denver TRACON
Tue 12:33:32 PM 39.9667 -104.5333 226° Southwest 255 293 12,000 -952 Descending Denver TRACON
Tue 12:34:38 PM 39.9333 -104.6167 242° Southwest 256 295 11,000 -659 Descending Denver TRACON
Tue 12:35:03 PM 39.9364 -104.6617 275° West 245 282 11,000  Level Denver Center
Tue 12:36:05 PM 39.9369 -104.7453 271° West 234 269 11,000 -581 Level Denver Center
Tue 12:37:07 PM 39.9356 -104.8269 269° West 213 245 9,800 -1,113 Descending Denver Center
Tue 12:38:09 PM 39.9142 -104.8922 247° West 215 247 8,700 -1,008 Descending Denver Center
Tue 12:39:12 PM 39.8556 -104.8842 174° South 200 230 7,700 -768 Descending Denver Center
Tue 12:40:14 PM 39.8417 -104.8211 106° East 189 217 7,100 -871 Descending Denver Center
Tue 12:41:16 PM 39.8411 -104.7547 91° East 175 201 5,900 -871 Descending Denver Center
Tue 12:42:18 PM 39.8403 -104.7044 91° East 137 158 5,300 -581 Descending Denver Center
Tue 12:44:00 PM 39.8500 -104.6667 118° Southeast  Level FlightAware
Tue 12:51:00 PM 39.8617 -104.6732 118° Southeast  Level Estimated

Login

Don't have an account? Register now (free) for customized features, flight alerts, and more!